Location: Moscow
(55.7500°N, 37.5830°E)
Time: 01:21:04
(UTC+03:00)

N. Korean satellite - Pass Details

Date: 06 March 2021
Orbit: 452 x 499 km, 97.2° (Epoch: 21 April)

Event Time Altitude Azimuth Distance (km) Brightness Sun altitude
Rises 05:26:06 0° 21° (NNE) 2,529 10.7 -15.1°
Reaches altitude 10° 05:28:20 10° 33° (NNE) 1,655 9.9 -14.8°
Maximum altitude 05:31:29 29° 95° (E) 900 8.7 -14.4°
Drops below altitude 10° 05:34:40 10° 158° (SSE) 1,667 9.4 -13.9°
Sets 05:36:56 0° 170° (S) 2,551 10.2 -13.6°
